sat.trackr.live / text

‹ back to catalog

STARLINK-36180

NORAD 67114 · 2025-299N

PAYLOAD ACTIVE UNKNOWN

§ Identity

Operator
Country
US
Launch date
2025-12-15
Launch site
AFETR
Launch vehicle
Mass (kg)
RCS (m²)

Purposes: comms

External: N2YO · Heavens-Above · Gunter

§ Orbital elements

Epoch: 2026-05-24T22:12:28.417824Z

Period
94.27 min
Inclination
42.9987°
Eccentricity
0.0000583
Mean motion
15.27602016 rev/d
Perigee alt
482.6 km
Apogee alt
483.4 km
Semi-major
6,861.1 km
B*
6.6032e-4
RAAN
98.6094°
Arg perigee
264.6744°
Mean anomaly
95.4041°
Rev number
2,477

§ Raw data

STARLINK-361801 67114U 25299N   26144.92532891  .00017965  00000+0  66032-3 0  99992 67114  42.9987  98.6094 0000583 264.6744  95.4041 15.27602016 24778

JSON: /api/v1/satellites/67114 · /tle

For live sub-satellite position, see the globe view (requires WebGL).

§ Visibility from observer

Set your observer location to see the next 7 days of passes ≥ 10°. The values pass through the URL so the page stays shareable.

No JS? Fill the form by hand. The geolocation button needs JavaScript.